N931CD KJWN-KJWN

Flight info

Callsign N931CD
Flight time N/A
Altitude 3500
Route BNA
Aircraft BE58/L-SDFGRY/C

Departure

Time 2026-05-07 23:13
Airport John C Tune Airport (KJWN)

Arrival

Time N/A
Airport John C Tune Airport (KJWN)
Time Latitude Longitude Altitude Speed Heading
2026-05-07 23:02 36.17943 -86.88501 472 ft 0 kts 110°
2026-05-07 23:08 36.17942 -86.88496 472 ft 5 kts 110°
2026-05-07 23:08 36.17958 -86.88462 473 ft 8 kts 316°
2026-05-07 23:08 36.17997 -86.88508 473 ft 8 kts 309°
2026-05-07 23:09 36.18015 -86.88572 473 ft 9 kts 287°
2026-05-07 23:09 36.18073 -86.88588 475 ft 12 kts 18°
2026-05-07 23:09 36.18174 -86.88553 478 ft 18 kts 14°
2026-05-07 23:09 36.18283 -86.88518 482 ft 14 kts 15°
2026-05-07 23:10 36.18361 -86.88492 485 ft 11 kts 14°
2026-05-07 23:10 36.18489 -86.88450 491 ft 26 kts 14°
2026-05-07 23:10 36.18691 -86.88384 499 ft 33 kts 14°
2026-05-07 23:10 36.18803 -86.88371 505 ft 7 kts 299°
2026-05-07 23:11 36.18807 -86.88386 506 ft 0 kts 284°
2026-05-07 23:11 36.18816 -86.88426 506 ft 17 kts 284°
2026-05-07 23:12 36.18791 -86.88496 504 ft 13 kts 193°
2026-05-07 23:12 36.18471 -86.88598 484 ft 87 kts 195°
2026-05-07 23:12 36.17711 -86.88845 575 ft 127 kts 195°
2026-05-07 23:12 36.16829 -86.89138 769 ft 139 kts 194°
2026-05-07 23:13 36.15845 -86.89401 986 ft 151 kts 193°
2026-05-07 23:13 36.14796 -86.89681 1151 ft 160 kts 183°
2026-05-07 23:13 36.13773 -86.89219 1345 ft 162 kts 132°
2026-05-07 23:13 36.13388 -86.87963 1545 ft 159 kts 83°
2026-05-07 23:14 36.13603 -86.86648 1746 ft 156 kts 81°
2026-05-07 23:14 36.13649 -86.85296 1924 ft 158 kts 86°
2026-05-07 23:14 36.13659 -86.84002 2090 ft 158 kts 86°
2026-05-07 23:14 36.13669 -86.82652 2269 ft 156 kts 86°
2026-05-07 23:15 36.13674 -86.81303 2448 ft 156 kts 86°
2026-05-07 23:15 36.13532 -86.79971 2627 ft 162 kts 114°
2026-05-07 23:15 36.12720 -86.79006 2820 ft 165 kts 143°
2026-05-07 23:15 36.12051 -86.77929 2985 ft 158 kts 99°
2026-05-07 23:16 36.12282 -86.76676 3177 ft 152 kts 48°
2026-05-07 23:16 36.13197 -86.76136 3366 ft 150 kts
2026-05-07 23:16 36.14237 -86.76224 3506 ft 152 kts 354°
2026-05-07 23:16 36.15318 -86.76311 3515 ft 158 kts 355°
2026-05-07 23:17 36.16426 -86.76401 3519 ft 162 kts 355°
2026-05-07 23:17 36.17554 -86.76497 3514 ft 163 kts 354°
2026-05-07 23:17 36.18688 -86.76599 3517 ft 163 kts 355°
2026-05-07 23:17 36.19824 -86.76651 3509 ft 164 kts
2026-05-07 23:18 36.20945 -86.76415 3504 ft 166 kts 21°
2026-05-07 23:18 36.21989 -86.75784 3509 ft 168 kts 25°
2026-05-07 23:18 36.22977 -86.75009 3500 ft 171 kts 47°
2026-05-07 23:18 36.23361 -86.73625 3520 ft 178 kts 91°
2026-05-07 23:19 36.22853 -86.72241 3517 ft 183 kts 135°
2026-05-07 23:19 36.21713 -86.71597 3521 ft 182 kts 173°
2026-05-07 23:19 36.20451 -86.71493 3520 ft 181 kts 187°
2026-05-07 23:19 36.19226 -86.71851 3514 ft 182 kts 198°
2026-05-07 23:20 36.18013 -86.72284 3518 ft 181 kts 198°
2026-05-07 23:20 36.16806 -86.72719 3511 ft 180 kts 198°
2026-05-07 23:20 36.15618 -86.73139 3516 ft 180 kts 197°
2026-05-07 23:20 36.14417 -86.73565 3513 ft 180 kts 198°
2026-05-07 23:21 36.13212 -86.73995 3514 ft 180 kts 198°
2026-05-07 23:21 36.12005 -86.74425 3515 ft 180 kts 198°
2026-05-07 23:21 36.10800 -86.74858 3513 ft 181 kts 198°
2026-05-07 23:21 36.09595 -86.75293 3514 ft 181 kts 198°
2026-05-07 23:22 36.08387 -86.75728 3518 ft 181 kts 197°
2026-05-07 23:22 36.07172 -86.76166 3509 ft 181 kts 198°
2026-05-07 23:22 36.06374 -86.76453 3507 ft 180 kts 198°
2026-05-07 23:22 36.05175 -86.76884 3508 ft 180 kts 198°
2026-05-07 23:23 36.03977 -86.77308 3511 ft 179 kts 198°
2026-05-07 23:23 36.02778 -86.77732 3506 ft 179 kts 198°
2026-05-07 23:23 36.01581 -86.78159 3510 ft 180 kts 198°
2026-05-07 23:23 36.00365 -86.78499 3510 ft 180 kts 181°
2026-05-07 23:24 35.99149 -86.78122 3510 ft 182 kts 160°
2026-05-07 23:24 35.97966 -86.77572 3512 ft 181 kts 160°
2026-05-07 23:24 35.96783 -86.77028 3507 ft 182 kts 160°
2026-05-07 23:24 35.95593 -86.76476 3516 ft 183 kts 160°
2026-05-07 23:25 35.94410 -86.75899 3509 ft 183 kts 153°
2026-05-07 23:25 35.93379 -86.74992 3505 ft 181 kts 140°
2026-05-07 23:25 35.92374 -86.74043 3512 ft 183 kts 144°
2026-05-07 23:25 35.91322 -86.73151 3508 ft 184 kts 146°
2026-05-07 23:26 35.90267 -86.72271 3511 ft 184 kts 146°
2026-05-07 23:26 35.89209 -86.71386 3512 ft 183 kts 146°
2026-05-07 23:26 35.88156 -86.70503 3513 ft 183 kts 146°
2026-05-07 23:26 35.87103 -86.69625 3515 ft 183 kts 146°
2026-05-07 23:27 35.84953 -86.67827 3515 ft 190 kts 146°
2026-05-07 23:27 35.83854 -86.66907 3521 ft 191 kts 146°
2026-05-07 23:27 35.82755 -86.65987 3517 ft 191 kts 146°
2026-05-07 23:28 35.81656 -86.65069 3517 ft 190 kts 146°
2026-05-07 23:28 35.80560 -86.64160 3514 ft 191 kts 146°
2026-05-07 23:28 35.79466 -86.63243 3500 ft 190 kts 146°
2026-05-07 23:28 35.78370 -86.62328 3500 ft 190 kts 146°
2026-05-07 23:29 35.77271 -86.61415 3499 ft 191 kts 146°
2026-05-07 23:29 35.76174 -86.60495 3507 ft 192 kts 147°
2026-05-07 23:29 35.75072 -86.59575 3498 ft 190 kts 146°
2026-05-07 23:29 35.73969 -86.58660 3494 ft 192 kts 147°
2026-05-07 23:30 35.72841 -86.57723 3368 ft 198 kts 146°
2026-05-07 23:30 35.71694 -86.56763 3240 ft 199 kts 146°
2026-05-07 23:30 35.70547 -86.55810 3110 ft 199 kts 146°
2026-05-07 23:30 35.69396 -86.54850 2984 ft 201 kts 146°
2026-05-07 23:31 35.68243 -86.53895 2859 ft 199 kts 145°
2026-05-07 23:31 35.67098 -86.52943 2739 ft 198 kts 144°
2026-05-07 23:31 35.65950 -86.51989 2607 ft 199 kts 144°
2026-05-07 23:31 35.64805 -86.51033 2478 ft 199 kts 144°
2026-05-07 23:32 35.63659 -86.50082 2387 ft 196 kts 144°
2026-05-07 23:32 35.62537 -86.49153 2385 ft 193 kts 145°
2026-05-07 23:32 35.61430 -86.48231 2384 ft 192 kts 144°
2026-05-07 23:32 35.60319 -86.47312 2392 ft 192 kts 144°
2026-05-07 23:33 35.59204 -86.46427 2392 ft 190 kts 154°
2026-05-07 23:33 35.57900 -86.46138 2395 ft 193 kts 179°
2026-05-07 23:33 35.56559 -86.46108 2393 ft 191 kts 179°
2026-05-07 23:33 35.55265 -86.46232 2398 ft 188 kts 189°
2026-05-07 23:34 35.53972 -86.46470 2393 ft 188 kts 189°
2026-05-07 23:34 35.52678 -86.46647 2396 ft 187 kts 181°
2026-05-07 23:34 35.51375 -86.46620 2392 ft 186 kts 179°
2026-05-07 23:34 35.50088 -86.46575 2393 ft 183 kts 179°
2026-05-07 23:35 35.48817 -86.46522 2397 ft 183 kts 179°
2026-05-07 23:35 35.47550 -86.46467 2399 ft 182 kts 178°
2026-05-07 23:35 35.46305 -86.46418 2390 ft 177 kts 179°
2026-05-07 23:35 35.45084 -86.46337 2401 ft 176 kts 169°
2026-05-07 23:36 35.44097 -86.45580 2397 ft 165 kts 120°
2026-05-07 23:36 35.43915 -86.44354 2396 ft 137 kts 68°
2026-05-07 23:36 35.44488 -86.43553 2398 ft 121 kts 20°
2026-05-07 23:36 35.45359 -86.43460 2415 ft 133 kts 347°
2026-05-07 23:37 35.46258 -86.43817 2417 ft 136 kts 341°
2026-05-07 23:37 35.47180 -86.44127 2402 ft 138 kts 353°
2026-05-07 23:37 35.48138 -86.44124 2408 ft 139 kts 358°
2026-05-07 23:37 35.49126 -86.44161 2227 ft 145 kts 356°
2026-05-07 23:38 35.50140 -86.44221 1961 ft 145 kts 357°
2026-05-07 23:38 35.51155 -86.44194 1697 ft 146 kts
2026-05-07 23:38 35.52171 -86.44189 1481 ft 144 kts 357°
2026-05-07 23:38 35.53112 -86.44207 1256 ft 126 kts 357°
2026-05-07 23:39 35.53955 -86.44226 1052 ft 121 kts 357°
2026-05-07 23:39 35.54801 -86.44236 927 ft 122 kts 358°
2026-05-07 23:39 35.55609 -86.44244 797 ft 103 kts 360°
2026-05-07 23:39 35.56283 -86.44252 821 ft 105 kts 359°
2026-05-07 23:40 35.57068 -86.44276 1004 ft 117 kts 356°
2026-05-07 23:40 35.57879 -86.44304 1257 ft 118 kts 350°
2026-05-07 23:40 35.58524 -86.44925 1439 ft 133 kts 294°
2026-05-07 23:40 35.58384 -86.46071 1670 ft 150 kts 237°
2026-05-07 23:41 35.57462 -86.46690 1893 ft 160 kts 187°
2026-05-07 23:41 35.56343 -86.46680 2118 ft 162 kts 180°
2026-05-07 23:41 35.55212 -86.46661 2329 ft 163 kts 180°
2026-05-07 23:41 35.54064 -86.46635 2496 ft 169 kts 180°
2026-05-07 23:42 35.52863 -86.46606 2506 ft 176 kts 180°
2026-05-07 23:42 35.51626 -86.46584 2509 ft 179 kts 180°
2026-05-07 23:42 35.50386 -86.46522 2511 ft 178 kts 169°
2026-05-07 23:42 35.49351 -86.45750 2510 ft 178 kts 127°
2026-05-07 23:43 35.48990 -86.44350 2509 ft 174 kts 83°
2026-05-07 23:43 35.49337 -86.42968 2502 ft 171 kts 77°
2026-05-07 23:43 35.49142 -86.41537 2499 ft 175 kts 117°
2026-05-07 23:43 35.48421 -86.40325 2506 ft 176 kts 124°
2026-05-07 23:44 35.47692 -86.39131 2512 ft 175 kts 124°
2026-05-07 23:44 35.47057 -86.37863 2511 ft 173 kts 103°
2026-05-07 23:44 35.47135 -86.36448 2514 ft 167 kts 71°
2026-05-07 23:44 35.47334 -86.35028 2508 ft 171 kts 82°
2026-05-07 23:45 35.47387 -86.33553 2529 ft 175 kts 85°
2026-05-07 23:45 35.47433 -86.32045 2513 ft 177 kts 83°
2026-05-07 23:45 35.47482 -86.30537 2516 ft 177 kts 84°
2026-05-07 23:45 35.47529 -86.29025 2514 ft 177 kts 84°
2026-05-07 23:46 35.47580 -86.27515 2517 ft 177 kts 84°
2026-05-07 23:46 35.47625 -86.26004 2508 ft 177 kts 84°
2026-05-07 23:46 35.47671 -86.24500 2509 ft 176 kts 84°
2026-05-07 23:46 35.47720 -86.23010 2510 ft 178 kts 84°
2026-05-07 23:47 35.47766 -86.21477 2513 ft 178 kts 84°
2026-05-07 23:47 35.47812 -86.19974 2516 ft 179 kts 84°
2026-05-07 23:47 35.47860 -86.18452 2514 ft 180 kts 84°
2026-05-07 23:47 35.47874 -86.16915 2507 ft 182 kts 94°
2026-05-07 23:48 35.47399 -86.15474 2506 ft 187 kts 125°
2026-05-07 23:48 35.46422 -86.14434 2503 ft 187 kts 152°
2026-05-07 23:48 35.45214 -86.14074 2497 ft 174 kts 181°
2026-05-07 23:48 35.44071 -86.14375 2462 ft 166 kts 207°
2026-05-07 23:49 35.43174 -86.15182 2465 ft 157 kts 232°
2026-05-07 23:49 35.42579 -86.16269 2462 ft 153 kts 242°
2026-05-07 23:49 35.41999 -86.17379 2357 ft 154 kts 242°
2026-05-07 23:49 35.41437 -86.18455 2158 ft 146 kts 242°
2026-05-07 23:50 35.40899 -86.19504 1964 ft 144 kts 242°
2026-05-07 23:50 35.40377 -86.20518 1777 ft 138 kts 241°
2026-05-07 23:50 35.39893 -86.21458 1725 ft 124 kts 240°
2026-05-07 23:50 35.39385 -86.22367 1520 ft 132 kts 241°
2026-05-07 23:51 35.38921 -86.23340 1291 ft 132 kts 240°
2026-05-07 23:51 35.38456 -86.24248 1104 ft 117 kts 238°
2026-05-07 23:51 35.38072 -86.24998 1088 ft 100 kts 237°
2026-05-07 23:51 35.37639 -86.25838 1204 ft 126 kts 239°
2026-05-07 23:52 35.37172 -86.26794 1435 ft 136 kts 238°
2026-05-07 23:52 35.36341 -86.27424 1614 ft 156 kts 188°
2026-05-07 23:52 35.35244 -86.27144 1808 ft 169 kts 144°
2026-05-07 23:52 35.34625 -86.25980 2013 ft 166 kts 94°
2026-05-07 23:53 35.34904 -86.24676 2213 ft 161 kts 46°
2026-05-07 23:53 35.35847 -86.24071 2400 ft 155 kts
2026-05-07 23:53 35.36929 -86.24103 2498 ft 159 kts 356°
2026-05-07 23:53 35.38058 -86.24173 2512 ft 165 kts 355°
2026-05-07 23:54 35.39220 -86.24242 2509 ft 168 kts 356°
2026-05-07 23:54 35.40396 -86.24316 2509 ft 169 kts 355°
2026-05-07 23:54 35.41569 -86.24403 2500 ft 169 kts 355°
2026-05-07 23:54 35.42746 -86.24491 2512 ft 169 kts 355°
2026-05-07 23:55 35.43930 -86.24579 2503 ft 171 kts 355°
2026-05-07 23:55 35.45112 -86.24660 2504 ft 170 kts 356°
2026-05-07 23:55 35.46274 -86.24739 2501 ft 169 kts 356°
2026-05-07 23:55 35.47443 -86.24819 2498 ft 168 kts 355°
2026-05-07 23:56 35.48610 -86.24896 2504 ft 168 kts 356°
2026-05-07 23:56 35.49781 -86.24973 2501 ft 169 kts 356°
2026-05-07 23:56 35.50910 -86.25275 2502 ft 167 kts 331°
2026-05-07 23:56 35.51886 -86.26063 2507 ft 169 kts 327°
2026-05-07 23:57 35.52861 -86.26840 2624 ft 166 kts 329°
2026-05-07 23:57 35.53865 -86.27552 2752 ft 166 kts 332°
2026-05-07 23:57 35.54876 -86.28240 2872 ft 167 kts 332°
2026-05-07 23:57 35.55888 -86.28929 2997 ft 167 kts 331°
2026-05-07 23:58 35.56901 -86.29615 3120 ft 166 kts 332°
2026-05-07 23:58 35.57913 -86.30302 3247 ft 166 kts 331°
2026-05-07 23:58 35.58921 -86.30986 3378 ft 165 kts 332°
2026-05-07 23:58 35.59926 -86.31670 3493 ft 165 kts 331°
2026-05-07 23:59 35.60928 -86.32349 3619 ft 164 kts 332°
2026-05-07 23:59 35.61927 -86.33027 3747 ft 164 kts 331°
2026-05-07 23:59 35.62926 -86.33706 3870 ft 164 kts 331°
2026-05-07 23:59 35.63921 -86.34384 3996 ft 164 kts 331°
2026-05-08 00:00 35.64922 -86.35065 4122 ft 165 kts 331°
2026-05-08 00:00 35.65924 -86.35745 4251 ft 164 kts 332°
2026-05-08 00:00 35.66923 -86.36425 4369 ft 164 kts 331°
2026-05-08 00:00 35.67920 -86.37105 4490 ft 164 kts 331°
2026-05-08 00:01 35.68938 -86.37798 4497 ft 169 kts 331°
2026-05-08 00:01 35.69979 -86.38506 4504 ft 174 kts 331°
2026-05-08 00:01 35.71046 -86.39233 4509 ft 177 kts 331°